This is the latest recevied weather packets stored in our database for station/object W2OBX. If no packets are shown the sender has not sent any weather packets the latest 10 day(s).
| Time | Temp. | Humidity | Pressure | Rain* | Wind** | Luminosity | Snow |
|---|---|---|---|---|---|---|---|
| 1778187026 | 15.56° C | 91% | 1013.7 hPa | 0 mm | - | 123 W/m² | - |
| 1778186722 | 15° C | 92% | 1013.8 hPa | 0 mm | - | 158 W/m² | - |
| 1778186420 | 14.44° C | 93% | 1013.6 hPa | 0 mm | - | 91 W/m² | - |
| 1778186118 | 14.44° C | 93% | 1013.8 hPa | 0 mm | - | 89 W/m² | - |
| 1778185815 | 15° C | 94% | 1013.9 hPa | 0 mm | - | 94 W/m² | - |
| 1778185510 | 14.44° C | 96% | 1013.9 hPa | 0 mm | - | 102 W/m² | - |
| 1778185207 | 13.89° C | 96% | 1013.8 hPa | 0 mm | - | 118 W/m² | - |
| 1778184902 | 13.89° C | 97% | 1014 hPa | 0 mm | - | 55 W/m² | - |
| 1778184599 | 13.89° C | 97% | 1014 hPa | 0 mm | - | 37 W/m² | - |
| 1778184294 | 13.89° C | 96% | 1014.1 hPa | 0 mm | - | 34 W/m² | - |
| 1778183990 | 13.89° C | 96% | 1014.2 hPa | 0 mm | - | 28 W/m² | - |
| 1778183688 | 13.89° C | 96% | 1014 hPa | 0 mm | - | 29 W/m² | - |
| 1778183385 | 13.89° C | 96% | 1014.4 hPa | 0 mm | - | 27 W/m² | - |
| 1778183082 | 13.89° C | 95% | 1014.2 hPa | 0 mm | - | 18 W/m² | - |
| 1778182777 | 13.89° C | 94% | 1014 hPa | 0 mm | - | 18 W/m² | - |
| 1778182475 | 13.89° C | 94% | 1014.1 hPa | 0 mm | - | 22 W/m² | - |
| 1778182172 | 13.89° C | 94% | 1014 hPa | 0 mm | - | 25 W/m² | - |
| 1778181867 | 13.89° C | 94% | 1014.1 hPa | 0 mm | - | 16 W/m² | - |
| 1778181565 | 13.89° C | 94% | 1013.8 hPa | 0 mm | - | 19 W/m² | - |
| 1778181261 | 14.44° C | 93% | 1014.1 hPa | 0 mm | - | 35 W/m² | - |
| 1778180957 | 13.89° C | 94% | 1014.1 hPa | 0 mm | - | 69 W/m² | - |
| 1778180655 | 13.89° C | 93% | 1014.4 hPa | 0 mm | - | 75 W/m² | - |
| 1778180354 | 13.89° C | 95% | 1014.4 hPa | 0 mm | - | 72 W/m² | - |
| 1778180051 | 13.89° C | 94% | 1014 hPa | 0 mm | - | 146 W/m² | - |
| 1778179748 | 13.89° C | 96% | 1013.9 hPa | 0 mm | - | 153 W/m² | - |
* Rain latest hour (hover to see other rain measurements)
** Current wind speed in m/s (hover to see current wind gust speed)